This demonstration page uses our WeatherBlox Daily Observations layout. Learn more.

Left ArrowRight Arrow

39.12711, -84.51439

Hourly Observations for May 18, 2022

Temp ( °F °C ) Dew Point ( °F °C ) Humidity (%) Winds ( mph kmh ) Pressure ( in mb ) Visibility ( mi km ) Precip ( " mm )
12:53 am 00:53 Partly Cloudy 57 13.9 54 12.2 90 90 Calm 30.01 1016 10 16 0.00 0.00
1:53 am 01:53 Clear 56 13.3 53 11.7 90 90 Calm 30.00 1016 10 16 0.00 0.00
2:53 am 02:53 Clear 55 12.8 53 11.7 93 93 Calm 29.99 1016 10 16 0.00 0.00
3:53 am 03:53 Clear 53 11.7 52 11.1 96 96 Calm 29.97 1015 10 16 0.00 0.00
4:53 am 04:53 Clear 54 12.2 53 11.7 97 97 Calm 29.97 1015 10 16 0.00 0.00
5:53 am 05:53 Clear 56 13.3 54 12.2 93 93 Calm 29.98 1015 10 16 0.00 0.00
6:53 am 06:53 Mostly Cloudy 57 13.9 55 12.8 93 93 Calm 29.98 1015 10 16 0.00 0.00
7:53 am 07:53 Cloudy with Light Rain 58 14.4 56 13.3 93 93 Calm 29.98 1015 9 14 0.00 0.00
8:53 am 08:53 Mostly Cloudy 60 15.6 57 13.9 90 90 Calm 29.96 1015 10 16 0.00 0.00
9:53 am 09:53 Cloudy 62 16.7 57 13.9 84 84 WSW 3 6 29.96 1015 10 16 0.00 0.00
10:53 am 10:53 Mostly Cloudy 65 18.3 58 14.4 78 78 VRB 3 6 29.96 1015 10 16 0.00 0.00
11:53 am 11:53 Partly Cloudy 73 22.8 62 16.7 69 69 SSW 7 11 29.95 1014 10 16 0.00 0.00
12:53 pm 12:53 Partly Cloudy 77 25 59 15 54 54 SW 13 20 29.91 1013 10 16 0.00 0.00
1:53 pm 13:53 Mostly Cloudy 75 23.9 59 15 58 58 S 10 17 29.85 1011 10 16 0.00 0.00
2:53 pm 14:53 Mostly Cloudy 74 23.3 59 15 60 60 S 8 13 29.77 1008 10 16 0.00 0.00
3:53 pm 15:53 Mostly Cloudy with Light Rain 75 23.9 59 15 58 58 Calm 29.78 1008 10 16 0.00 0.00
4:53 pm 16:53 Cloudy with Light Rain 71 21.7 68 20 90 90 Calm 29.79 1009 7 11 0.00 0.00
5:53 pm 17:53 Cloudy with Rain 66 18.9 63 17.2 90 90 WSW 7 11 29.79 1009 3 5 0.15 3.81
6:53 pm 18:53 Cloudy with Rain 64 17.8 64 17.8 100 100 Calm 29.77 1008 3 5 0.09 2.29
7:48 pm 19:48 Cloudy with Light Rain 63 17 63 17 100 100 NE 5 7 29.76 1008 1 2 0.16 4.06
7:53 pm 19:53 Cloudy with Light Rain 63 17.2 63 17.2 100 100 NE 3 6 29.76 1008 1 2 0.17 4.32
8:38 pm 20:38 Cloudy with Light Rain 63 17.2 63 17.2 100 100 ENE 3 6 29.75 1008 2 3 0.04 1.02
8:46 pm 20:46 Cloudy with Mist and Fog 63 17.2 63 17.2 100 100 Calm 29.75 1008 4 6 0.04 1.02
8:53 pm 20:53 Cloudy with Mist and Fog 63 17.2 63 17.2 100 100 ENE 3 6 29.75 1008 5 8 0.04 1.02
9:53 pm 21:53 Cloudy with Mist and Fog 64 17.8 64 17.8 100 100 Calm 29.77 1008 5 8 0.00 0.00
10:16 pm 22:16 Cloudy 64 17.8 64 17.8 100 100 Calm 29.77 1008 8 13 0.00 0.00
10:53 pm 22:53 Cloudy 65 18.3 64 17.8 97 97 VRB 6 9 29.78 1008 7 11 0.00 0.00
11:05 pm 23:05 Cloudy 65 18.3 64 17.8 97 97 W 6 9 29.78 1009 9 14 0.00 0.00
11:53 pm 23:53 Cloudy 65 18.3 64 17.8 97 97 W 5 7 29.79 1009 10 16 0.00 0.00

Powered by AerisWeather